Effective Sunday, March 17, 2024, the National Weather Service National Data Buoy Center will discontinue its Dial-A-Buoy Interactive Voice Response system. For more information, see Service Change Notice 24-06 (PDF).

Station IRDT2 - 8776139 - South Bird Island, TX Image indicating link to RSS feed of recent meteorological observations for station IRDT2


Conditions at IRDT2 as of
(11:12 am CST)
1712 GMT on 03/01/2024:
     

Click on the graph icon in the table below to see a time series plot of the last five days of that observation.

5-day plot - Wind Direction Wind Direction (WDIR): N ( 360 deg true )
5-day plot - Wind Speed Wind Speed (WSPD): 7.0 kts
5-day plot - Wind Gust Wind Gust (GST): 8.0 kts
5-day plot - Atmospheric Pressure Atmospheric Pressure (PRES):30.14 in
5-day plot - Air Temperature Air Temperature (ATMP): 54.5 °F
5-day plot - Water Temperature Water Temperature (WTMP): 58.5 °F
5-day plot - Wind Speed at 10 Meters Wind Speed at 10 meters (WSPD10M): 7.8 kts
5-day plot - Wind Speed at 20 Meters Wind Speed at 20 meters (WSPD20M): 7.8 kts
5-day plot -  Wind Speed, Wind Gust and Atmospheric Pressure Combined plot of Wind Speed, Gust, and Air Pressure
Previous observations
TIME
(CST)
5-day plot - Wind Direction
WDIR
 
5-day plot - Wind Speed
WSPD
kts
5-day plot - Wind Gust
GST
kts
5-day plot - Wave Height
WVHT
ft
5-day plot - Dominant Wave Period
DPD
sec
5-day plot - Average Wave Period
APD
sec
5-day plot - Mean Wave Direction
MWD
 
5-day plot - Atmospheric Pressure
PRES
in
5-day plot - Pressure Tendency
PTDY
in
5-day plot - Air Temperature
ATMP
°F
5-day plot - Water Temperature
WTMP
°F
5-day plot - Dew Point
DEWP
°F
5-day plot - Salinity
SAL
psu
5-day plot - Visibility
VIS
nmi
5-day plot - Tide (above MLLW)
TIDE
ft
2024-03-01 11:06 amNNE 7.0 9.9----30.14- 54.1 58.3----
2024-03-01 11:00 amNNE 8.9 9.9----30.13+0.01 54.0 58.3----
2024-03-01 10:54 amNNE 8.0 11.1----30.13- 53.8 58.3----
2024-03-01 10:48 amNNE 8.0 8.9----30.13- 54.0 58.3----
2024-03-01 10:42 amNNE 7.0 8.0----30.14- 54.0 58.1----
2024-03-01 10:36 amNNE 7.0 8.0----30.14- 53.6 58.1----
2024-03-01 10:30 amNNE 7.0 8.9----30.15- 53.6 58.1----
2024-03-01 10:18 amNNE 7.0 8.0----30.14- 53.4 57.9----
2024-03-01 10:12 amNNE 5.1 8.9----30.15- 53.2 57.9----
2024-03-01 10:06 amNNE 7.0 8.9----30.14- 53.2 57.9----
2024-03-01 10:00 amNNE 7.0 8.9----30.14+0.04 53.1 57.9----
2024-03-01 09:54 am N 7.0 9.9----30.14- 53.1 57.9----
2024-03-01 09:48 am N 8.9 12.0----30.14- 52.9 57.7----
2024-03-01 09:42 am N 9.9 12.0----30.14- 53.1 57.9----
2024-03-01 09:36 am N 8.9 11.1----30.14- 53.1 57.9----
2024-03-01 09:30 am N 9.9 12.0----30.14- 52.7 57.9----
2024-03-01 09:24 amNNE 9.9 13.0----30.13- 53.1 57.9----
2024-03-01 09:18 am N 11.1 12.0----30.13- 53.1 57.9----
2024-03-01 09:12 amNNE 9.9 13.0----30.13- 53.2 57.9----
2024-03-01 09:06 am N 12.0 13.0----30.13- 53.2 57.9----
2024-03-01 09:00 am N 9.9 13.0----30.13+0.04 53.2 57.9----
2024-03-01 08:54 am N 12.0 13.0----30.13- 53.1 57.9----
2024-03-01 08:48 am N 11.1 13.0----30.13- 53.1 57.9----
2024-03-01 08:42 am N 12.0 13.0----30.12- 52.9 57.9----
2024-03-01 08:36 am N 11.1 14.0----30.12- 53.1 57.9----
2024-03-01 08:30 amNNE 11.1 13.0----30.11- 53.1 57.9----
2024-03-01 08:24 amNNE 12.0 14.0----30.12- 52.9 57.9----
2024-03-01 08:18 amNNE 9.9 12.0----30.11- 53.1 57.9----
2024-03-01 08:12 amNNE 9.9 12.0----30.12- 53.1 57.9----
2024-03-01 08:06 amNNE 12.0 13.0----30.11- 52.9 58.1----
2024-03-01 08:00 amNNE 9.9 12.0----30.12+0.04------
2024-03-01 07:48 amNNE 8.9 12.0----30.11- 53.1 58.1----
2024-03-01 07:42 amNNE 12.0 14.0----30.10- 52.9 58.1----
2024-03-01 07:36 am NE 12.0 13.0----30.09- 52.7 58.1----
2024-03-01 07:30 amNNE 9.9 11.1----30.10- 52.7 58.3----
2024-03-01 07:18 amNNE 9.9 11.1----30.11- 52.7 58.3----
2024-03-01 07:12 am N 8.9 11.1----30.11- 52.5 58.3----
2024-03-01 07:06 am N 8.9 12.0----30.11- 52.9 58.3----
2024-03-01 07:00 am N 11.1 13.0----30.10+0.02 52.9 58.3----
2024-03-01 06:54 am N 9.9 11.1----30.10- 52.7 58.3----
2024-03-01 06:48 am N 9.9 12.0----30.11- 52.5 58.3----
2024-03-01 06:42 am N 11.1 13.0----30.11- 52.9 58.3----
2024-03-01 06:36 amNNE 11.1 13.0----30.09- 52.7 58.3----
2024-03-01 06:30 amNNE 12.0 13.0----30.09- 52.5 58.3----
2024-03-01 06:24 amNNE 11.1 13.0----30.09- 52.7 58.3----
2024-03-01 06:18 am N 12.0 14.0----30.09- 52.7 58.5----
2024-03-01 06:12 amNNE 11.1 14.0----30.09- 52.3 58.5----
2024-03-01 06:06 am N 12.0 14.0------------
2024-03-01 06:00 am N 11.1 13.0----30.09+0.00 52.7 58.5----
2024-03-01 05:54 amNNE 8.9 12.0----30.09- 52.7 58.6----
2024-03-01 05:42 amNNE 9.9 12.0------------
2024-03-01 05:36 am N 9.9 11.1----30.09- 52.7 58.6----
2024-03-01 05:30 am N 7.0 8.9----30.09- 52.5 58.6----
2024-03-01 05:24 am N 8.9 12.0----30.09- 52.0 58.6----
2024-03-01 05:18 amNNW 11.1 12.0----30.09- 51.8 58.6----
2024-03-01 05:12 amNNW 9.9 11.1----30.09- 52.0 58.6----
2024-03-01 05:06 amNNW 8.0 12.0----30.09- 52.3 58.6----
2024-03-01 05:00 amNNW 11.1 13.0----30.08-0.01 52.0 58.6----
2024-03-01 04:54 am N 11.1 13.0----30.08- 52.5 58.6----
2024-03-01 04:48 am N 12.0 13.0----30.08- 52.5 58.8----
2024-03-01 04:42 am N 9.9 14.0----30.08- 52.5 58.8----
2024-03-01 04:36 am N 13.0 14.0----30.06- 52.3 58.8----
2024-03-01 04:30 am N 12.0 13.0----30.06- 52.3 58.8----
2024-03-01 04:24 am N 9.9 11.1----30.07- 52.2 58.8----
2024-03-01 04:18 am N 8.9 12.0----30.08- 52.3 59.0----
2024-03-01 04:12 am N 9.9 12.0----30.08- 52.2 59.0----
2024-03-01 04:06 amNNW 11.1 14.0----30.08- 52.2 59.0----
2024-03-01 04:00 amNNW 12.0 14.0----30.08-0.03 52.7 59.0----
2024-03-01 03:54 am N 8.0 8.9----30.08- 52.9 59.0----
2024-03-01 03:42 am N 7.0 9.9----30.07- 52.5 59.0----
2024-03-01 03:36 am N 8.0 11.1----30.06- 52.5 59.0----
2024-03-01 03:30 amNNW 9.9 12.0----30.08- 52.5 59.0----
2024-03-01 03:24 am N 8.9 11.1----30.09- 52.5 59.0----
2024-03-01 03:18 am N 9.9 12.0----30.08- 52.5 59.0----
2024-03-01 03:12 amNNW 9.9 12.0----30.09- 52.5 59.0----
2024-03-01 03:06 amNNW 9.9 12.0----30.09- 52.7 59.2----
2024-03-01 03:00 amNNW 11.1 12.0----30.09-0.03 52.5 59.2----
2024-03-01 02:54 am N 9.9 11.1----30.09- 52.5 59.2----
2024-03-01 02:42 am N 8.9 13.0----30.09- 52.9 59.2----
2024-03-01 02:36 am N 9.9 13.0----30.08- 52.9 59.4----
2024-03-01 02:30 am N 11.1 13.0----30.09- 52.9 59.4----
2024-03-01 02:24 amNNW 12.0 13.0----30.09- 52.7 59.4----
2024-03-01 02:12 am N 9.9 12.0----30.09- 53.1 59.4----
2024-03-01 02:00 am N 9.9 14.0----30.09-0.01 53.6 59.4----
2024-03-01 01:54 am N 11.1 14.0----30.09- 53.2 59.4----
2024-03-01 01:42 am N 12.0 15.9----30.10- 53.6 59.4----
2024-03-01 01:30 am N 11.1 13.0----30.10- 53.2 59.4----
2024-03-01 01:24 am N 11.1 13.0----30.10- 53.4 59.4----
2024-03-01 01:12 am N 12.0 15.0----30.11- 53.2 59.4----
2024-03-01 01:00 am N 12.0 15.0----30.11-0.01 53.4 59.5----
2024-03-01 12:54 am N 12.0 14.0----30.11- 53.6 59.5----
2024-03-01 12:48 am N 13.0 15.9----30.11- 53.4 59.5----
2024-03-01 12:42 am N 13.0 15.9----30.11- 53.4 59.5----
2024-03-01 12:36 am N 13.0 15.0----30.11- 53.4 59.5----
2024-03-01 12:30 am N 14.0 17.1----30.11- 53.6 59.7----
2024-03-01 12:24 am N 13.0 15.9----30.12- 53.8 59.7----
2024-03-01 12:18 am N 12.0 13.0----30.12- 53.8 59.7----
2024-03-01 12:12 am N 9.9 15.0----30.13- 54.3 59.7----
2024-03-01 12:06 am N 12.0 15.0----30.12- 54.1 59.7----
2024-03-01 12:00 am N 12.0 15.0----30.12-0.01 54.3 59.7----
2024-02-29 11:54 pm N 13.0 15.9----30.12- 54.3 59.5----
2024-02-29 11:48 pm N 13.0 15.0----30.12-- 59.5----
2024-02-29 11:42 pm N 13.0 15.0----30.12-- 59.5----
2024-02-29 11:36 pm N 13.0 14.0----30.11- 54.1 59.5----
2024-02-29 11:30 pm N 12.0 14.0----30.11- 54.3 59.7----
2024-02-29 11:18 pm N 13.0 15.0----30.11- 54.3 59.7----
2024-02-29 11:12 pm N 13.0 15.9----30.11- 54.1 59.7----
2024-02-29 11:06 pm N 12.0 15.9----30.11- 54.1 59.7----
2024-02-29 11:00 pm N 15.0 15.9----30.11-0.02 54.1 59.7----
2024-02-29 10:48 pm N 13.0 17.1----30.11- 54.3 59.5----
2024-02-29 10:42 pm N 15.0 18.1----30.11- 54.3 59.7----
2024-02-29 10:36 pmNNE 15.9 19.0----30.11- 54.5 59.5----
2024-02-29 10:30 pmNNE 15.0 19.0----30.11- 54.5 59.7----
2024-02-29 10:24 pmNNE 15.0 20.0----30.11- 54.7 59.7----
2024-02-29 10:18 pmNNE 18.1 20.0----30.11- 54.5 59.7----
2024-02-29 10:12 pmNNE 17.1 20.0----30.11- 54.7 59.7----
2024-02-29 10:06 pmNNE 15.9 22.0----30.12- 55.0 59.9----
2024-02-29 10:00 pmNNE 15.9 20.0----30.12+0.00 54.7 59.9----
2024-02-29 09:54 pmNNE 17.1 21.0----30.12- 54.7 60.1----
2024-02-29 09:48 pmNNE 17.1 20.0----30.12- 54.9 60.1----
2024-02-29 09:42 pmNNE 18.1 20.0----30.12- 54.5 60.3----
2024-02-29 09:36 pmNNE 17.1 19.0----30.13- 54.7 60.3----
2024-02-29 09:30 pmNNE 15.0 18.1----30.13- 54.9 60.3----
2024-02-29 09:24 pm N 15.9 18.1----30.13- 54.7 60.3----
2024-02-29 09:18 pmNNE 14.0 18.1----30.14- 54.5 60.4----
2024-02-29 09:12 pmNNE 15.0 18.1----30.14- 54.5 60.4----
2024-02-29 09:06 pm N 17.1 20.0----30.14- 54.7 60.4----
2024-02-29 09:00 pm N 15.9 19.0----30.14+0.04 54.7 60.4----
2024-02-29 08:54 pm N 17.1 19.0----30.14- 54.3 60.6----
2024-02-29 08:48 pm N 15.9 18.1----30.14- 54.7 60.6----
2024-02-29 08:42 pm N 15.0 17.1----30.15- 54.5 60.4----
2024-02-29 08:36 pm N 15.0 18.1----30.15- 54.9 60.4----
2024-02-29 08:30 pm N 15.0 17.1----30.15- 54.9 60.6----
2024-02-29 08:24 pm N 15.9 19.0----30.14- 54.7 60.6----
2024-02-29 08:18 pm N 14.0 17.1----30.14- 54.9 60.6----
2024-02-29 08:12 pm N 15.9 18.1----30.14- 54.7 60.6----
2024-02-29 08:06 pm N 14.0 17.1----30.14- 54.9 60.6----
2024-02-29 08:00 pm N 15.0 18.1----30.13+0.05 54.9 60.8----
2024-02-29 07:54 pm N 15.0 17.1----30.13- 54.9 60.8----
2024-02-29 07:48 pm N 14.0 18.1----30.13- 55.0 60.8----
2024-02-29 07:42 pm N 15.9 19.0----30.13- 55.0 61.0----
2024-02-29 07:36 pm N 15.0 18.1----30.12- 55.4 61.0----
2024-02-29 07:30 pm N 17.1 20.0----30.12- 55.4 61.0----
2024-02-29 07:18 pm N 15.0 19.0----30.12- 55.8 61.0----
2024-02-29 07:12 pm N 15.0 19.0----30.11- 55.8 61.0----
2024-02-29 07:06 pm N 15.9 19.0----30.11- 55.8 61.0----
2024-02-29 07:00 pm N 15.9 20.0----30.11+0.02 56.1 61.2----
2024-02-29 06:54 pm N 17.1 19.0----30.11- 56.1 61.2----
2024-02-29 06:48 pm N 15.9 19.0----30.11- 56.5 61.2----
2024-02-29 06:42 pm N 15.9 19.0----30.11- 56.7 61.3----
2024-02-29 06:36 pm N 15.0 18.1----30.11- 56.7 61.2----
2024-02-29 06:30 pm N 15.9 19.0----30.11- 56.5 61.2----
2024-02-29 06:24 pm N 15.0 19.0----30.11- 56.8 61.3----
2024-02-29 06:18 pm N 15.9 18.1----30.11- 56.8 61.3----
2024-02-29 06:12 pm N 15.9 19.0----30.11- 56.8 61.3----
2024-02-29 06:06 pm N 17.1 19.0----30.10- 56.7 61.3----
2024-02-29 06:00 pm N 15.9 19.0----30.10-0.01 56.7 61.3----
2024-02-29 05:54 pm N 15.9 19.0----30.10- 56.7 61.5----
2024-02-29 05:48 pm N 15.0 18.1----30.10- 56.7 61.3----
2024-02-29 05:42 pm N 15.0 19.0----30.10- 56.8 61.3----
2024-02-29 05:36 pm N 18.1 19.0----30.10- 56.7 61.2----
2024-02-29 04:42 pm N 15.9 18.1----30.09- 57.0 61.5----
2024-02-29 04:36 pm N 15.0 18.1----30.08- 56.7 61.3----
2024-02-29 04:30 pm N 15.9 17.1----30.08- 56.7 61.3----
2024-02-29 04:24 pm N 15.0 17.1----30.09- 56.7 61.2----
2024-02-29 04:18 pm N 15.0 19.0----30.09- 56.7 61.0----
2024-02-29 04:12 pm N 15.9 19.0----30.09- 56.3 60.6----
2024-02-29 04:06 pm N 15.9 19.0----30.09- 56.3 60.4----
2024-02-29 04:00 pm N 15.9 18.1----30.09-0.08 56.5 60.4----
2024-02-29 03:48 pm N 15.9 18.1----30.10- 56.1 60.6----
2024-02-29 03:42 pm N 15.9 18.1----30.10- 56.1 60.4----
2024-02-29 03:36 pm N 15.0 18.1----30.10- 56.1 60.4----
2024-02-29 03:30 pm N 15.0 18.1----30.11- 56.1 60.4----
2024-02-29 03:24 pm N 14.0 17.1----30.11- 56.1 60.3----
2024-02-29 03:18 pm N 14.0 17.1----30.11- 56.3 60.4----
2024-02-29 03:12 pm N 15.9 19.0----30.11- 56.1 60.4----
2024-02-29 03:06 pm N 15.0 18.1----30.11- 56.1 60.4----
2024-02-29 03:00 pm N 17.1 19.0----30.11-0.08 55.9 60.6----
2024-02-29 02:54 pm N 15.0 17.1----30.12- 56.1 60.6----
2024-02-29 02:48 pm N 15.0 19.0----30.12- 56.1 60.8----
2024-02-29 02:42 pm N 15.0 19.0----30.12- 55.9 60.8----
2024-02-29 02:36 pm N 15.9 18.1----30.12- 55.9 60.6----
2024-02-29 02:30 pm N 15.0 17.1----30.12- 55.8 60.6----
2024-02-29 02:24 pm N 15.0 18.1----30.12- 56.1 60.6----
2024-02-29 02:18 pm N 15.0 19.0----30.13- 56.1 60.6----
2024-02-29 02:12 pm N 14.0 18.1----30.13- 56.5 60.6----
2024-02-29 02:06 pm N 15.0 17.1----30.14- 56.3 60.6----
2024-02-29 02:00 pmNNE 15.0 18.1----30.14-0.07 56.3 60.4----
2024-02-29 01:54 pm N 14.0 19.0----30.15- 56.1 60.4----
2024-02-29 01:48 pm N 15.9 19.0----30.15- 56.3 60.4----
2024-02-29 01:42 pm N 15.0 18.1----30.15- 56.3 60.6----
2024-02-29 01:36 pm N 15.0 19.0----30.16- 56.3 60.6----
2024-02-29 01:30 pm N 15.9 19.0----30.16- 56.3 60.4----
2024-02-29 01:24 pm N 14.0 19.0----30.16- 57.0 60.4----
2024-02-29 01:18 pm N 15.9 19.0----30.17- 56.7 60.4----
2024-02-29 01:12 pm N 17.1 18.1----30.17- 57.4 60.4----
2024-02-29 01:06 pm N 15.9 18.1----30.17- 57.6 60.6----
2024-02-29 01:00 pm N 15.9 17.1----30.17-0.04 57.6 60.6----
2024-02-29 12:54 pm N 14.0 15.9----30.18- 57.6 60.6----
2024-02-29 12:48 pm N 13.0 15.9----30.18- 57.6 60.6----
2024-02-29 12:42 pm N 14.0 15.9----30.19- 57.6 60.4----
2024-02-29 12:36 pm N 14.0 17.1----30.19- 57.6 60.4----
2024-02-29 12:30 pm N 15.0 17.1----30.19- 57.7 60.6----
2024-02-29 12:24 pm N 13.0 15.0----30.19- 57.6 60.8----
2024-02-29 12:18 pm N 13.0 15.0----30.19- 57.6 61.0----
2024-02-29 12:12 pm N 13.0 15.9----30.20- 57.9 61.3----
2024-02-29 12:06 pm N 14.0 17.1----30.20- 57.9 61.9----
2024-02-29 12:00 pm N 13.0 15.0----30.20-0.03 57.9 62.1----
2024-02-29 11:54 am N 13.0 15.0----30.20- 57.7 62.1----